User: anonymous   Login
Location: *
(43.9900°N, 3.4811°E)
Time: 22:38:21
(UTC+00:00)
Language:

Cosmos 1340 - Orbit

View from above orbital plane
View from above orbital plane
View from above satellite
View from above satellite

Ground track
Ground track

The orbit data is extracted from the following two-line orbital elements,

1 13067U 82013A   19292.86262501 +.00000611 +00000-0 +26745-4 0  9990
2 13067 081.1882 216.9009 0003469 152.9499 207.1913 15.20526164057372
Epoch (UTC): 19 October 2019 20:42:10
Eccentricity: 0.0003469
inclination: 81.1882°
perigee height: 502 km
apogee height: 506 km
right ascension of ascending node: 216.9009°
argument of perigee: 152.9499°
revolutions per day: 15.20526164
mean anomaly at epoch: 207.1913°
orbit number at epoch: 5737

The dashed part of the orbit path shows where the satellite is in the earth's shadow,  

DLR